Find Starlink 30449

NORAD ID: 57903 Int'l Des: 2023-146 Owner: SPXS Country: US Constellation: starlink operational
LEOCIRCULAR

現在のビュー

3D地球を読み込み中...

About Starlink 30449

Starlink 30449 (NORAD 57903) is a starlink constellation satellite (v2 mini) launched Sep 20, 2023 by SPXS of US. It operates in LEO, CIRCULAR orbit with a mass of 730.00 kg.

Starlink 30449について

説明を読み込み中...

次回通過

Passes for default location (London). Set your location on the main map for personalized predictions.

高度履歴

Loading altitude history...

軌道要素

1 57903U 23146N 26171.18602526 .00001793 00000-0 74637-4 0 9998
2 57903 43.0050 95.1860 0001720 271.1611 88.9044 15.27593765151679
Epoch: Jun 20, 2026 • Age: 10 hours

現在のステータス

高度 491.3 km
速度 7.62 km/s
衛星直下点 -33.03°S, 175.63°W
打ち上げ日 Sep 20, 2023
運用期間 2.7 years
タイプ internet

技術仕様

分類 Payload
質量 730.00 kg
乾燥質量 700.00 kg
総質量 730.00 kg
長さ 0.30 m
直径 4.10 m
スパン 29.00 m
形状 Box + pan
製造者 SPXS
バスタイプ Starlink V2M
フェーズステータス In Orbit
所有者/国 SPXS/US

Most Searched